• En Argentina
  • Lista de países
  • Para 7 días
  • Temperatura del agua
  • El tiempo en el mapa
  • Informadores
  • user-avatar
    Iniciar sesión

    Tiempo cada hora Brest

    Hoy, 31 Marzo, Martes

    Tiempo Temperatura Precipitaciones Viento Presión Humedad
    00:00 -2°C° 0 mm 2 mps 753 mmHg 42%
    01:00 -2°C° 0 mm 2 mps 753 mmHg 43%
    02:00 -2°C° 0 mm 2 mps 754 mmHg 45%
    03:00 -2°C° 0 mm 2 mps 754 mmHg 46%
    04:00 -2°C° 0 mm 2 mps 754 mmHg 47%
    05:00 -2°C° 0 mm 2 mps 754 mmHg 48%
    06:00 -2°C° 0 mm 2 mps 754 mmHg 47%
    07:00 -1°C° 0 mm 2 mps 754 mmHg 45%
    08:00 +1°C° 0 mm 2 mps 755 mmHg 43%
    09:00 +2°C° 0 mm 2 mps 755 mmHg 41%
    10:00 +3°C° 0 mm 2 mps 755 mmHg 40%
    11:00 +4°C° 0 mm 2 mps 755 mmHg 38%
    12:00 +4°C° 0.2 mm 3 mps 755 mmHg 39%
    13:00 +4°C° 0.2 mm 3 mps 755 mmHg 39%
    14:00 +5°C° 0.2 mm 4 mps 754 mmHg 39%
    15:00 +4°C° 0.1 mm 4 mps 754 mmHg 39%
    16:00 +4°C° 0.1 mm 4 mps 754 mmHg 40%
    17:00 +4°C° 0.1 mm 4 mps 754 mmHg 41%
    18:00 +1°C° 0 mm 4 mps 754 mmHg 48%
    19:00 +1°C° 0 mm 3 mps 754 mmHg 55%
    20:00 0°C° 0 mm 3 mps 754 mmHg 62%
    21:00 -1°C° 0 mm 3 mps 754 mmHg 66%
    22:00 -1°C° 0 mm 3 mps 754 mmHg 70%
    23:00 -2°C° 0 mm 3 mps 754 mmHg 74%

    Mañana, 1 Abril, Miércoles

    Tiempo Temperatura Precipitaciones Viento Presión Humedad
    00:00 -2°C° 0 mm 3 mps 753 mmHg 73%
    01:00 -2°C° 0 mm 3 mps 753 mmHg 73%
    02:00 -3°C° 0 mm 4 mps 753 mmHg 72%
    03:00 -2°C° 0 mm 3 mps 753 mmHg 71%
    04:00 -2°C° 0 mm 3 mps 753 mmHg 70%
    05:00 -2°C° 0 mm 3 mps 752 mmHg 69%
    06:00 -3°C° 0 mm 4 mps 752 mmHg 64%
    07:00 -2°C° 0 mm 5 mps 752 mmHg 59%
    08:00 -2°C° 0 mm 6 mps 752 mmHg 55%
    09:00 -1°C° 0 mm 6 mps 751 mmHg 49%
    10:00 0°C° 0 mm 7 mps 751 mmHg 44%
    11:00 +2°C° 0 mm 7 mps 750 mmHg 39%
    12:00 +3°C° 0 mm 7 mps 750 mmHg 39%
    13:00 +4°C° 0 mm 7 mps 750 mmHg 40%
    14:00 +5°C° 0 mm 7 mps 749 mmHg 40%
    15:00 +4°C° 0 mm 7 mps 749 mmHg 43%
    16:00 +4°C° 0 mm 7 mps 748 mmHg 47%
    17:00 +4°C° 0 mm 7 mps 748 mmHg 50%
    18:00 +3°C° 0 mm 6 mps 748 mmHg 55%
    19:00 +2°C° 0 mm 5 mps 748 mmHg 60%
    20:00 +2°C° 0 mm 3 mps 747 mmHg 65%
    21:00 0°C° 0 mm 4 mps 747 mmHg 67%
    22:00 0°C° 0 mm 4 mps 747 mmHg 68%
    23:00 0°C° 0 mm 4 mps 747 mmHg 69%

    Pasado mañana, 2 Abril, Jueves

    Tiempo Temperatura Precipitaciones Viento Presión Humedad
    00:00 -1°C° 0 mm 4 mps 747 mmHg 69%
    01:00 -1°C° 0 mm 4 mps 747 mmHg 69%
    02:00 -1°C° 0 mm 5 mps 746 mmHg 69%
    03:00 -1°C° 0 mm 5 mps 746 mmHg 70%
    04:00 -2°C° 0 mm 5 mps 746 mmHg 70%
    05:00 -2°C° 0 mm 5 mps 746 mmHg 70%
    06:00 -1°C° 0 mm 5 mps 746 mmHg 69%
    07:00 -1°C° 0 mm 6 mps 746 mmHg 68%
    08:00 +1°C° 0 mm 6 mps 746 mmHg 68%
    09:00 +2°C° 0 mm 7 mps 745 mmHg 64%
    10:00 +3°C° 0 mm 7 mps 745 mmHg 61%
    11:00 +5°C° 0 mm 7 mps 745 mmHg 57%
    12:00 +5°C° 0 mm 7 mps 745 mmHg 56%
    13:00 +5°C° 0 mm 7 mps 745 mmHg 55%
    14:00 +6°C° 0 mm 7 mps 745 mmHg 53%
    15:00 +6°C° 0 mm 7 mps 745 mmHg 54%
    16:00 +7°C° 0 mm 6 mps 744 mmHg 55%
    17:00 +5°C° 0 mm 6 mps 744 mmHg 55%
    18:00 +6°C° 0 mm 5 mps 744 mmHg 59%
    19:00 +5°C° 0 mm 4 mps 744 mmHg 63%
    20:00 +4°C° 0 mm 4 mps 744 mmHg 66%
    21:00 +3°C° 0 mm 3 mps 744 mmHg 69%
    22:00 +3°C° 0 mm 3 mps 743 mmHg 72%
    23:00 +2°C° 0 mm 3 mps 743 mmHg 75%

    3 Abril, Viernes

    Tiempo Temperatura Precipitaciones Viento Presión Humedad
    00:00 +1°C° 0 mm 4 mps 743 mmHg 74%
    01:00 +1°C° 0 mm 4 mps 743 mmHg 73%
    02:00 +1°C° 0 mm 5 mps 743 mmHg 72%
    03:00 +1°C° 0 mm 5 mps 742 mmHg 73%
    04:00 +1°C° 0 mm 5 mps 742 mmHg 73%
    05:00 +1°C° 0 mm 4 mps 741 mmHg 73%
    06:00 +1°C° 0 mm 5 mps 742 mmHg 70%
    07:00 +2°C° 0 mm 6 mps 742 mmHg 68%
    08:00 +3°C° 0 mm 7 mps 742 mmHg 65%
    09:00 +4°C° 0 mm 8 mps 742 mmHg 62%
    10:00 +5°C° 0 mm 8 mps 742 mmHg 59%
    11:00 +7°C° 0 mm 8 mps 742 mmHg 56%
    12:00 +6°C° 0 mm 8 mps 743 mmHg 60%
    13:00 +6°C° 0 mm 8 mps 743 mmHg 64%
    14:00 +5°C° 0 mm 8 mps 744 mmHg 67%
    15:00 +6°C° 0.1 mm 8 mps 744 mmHg 62%
    16:00 +6°C° 0.1 mm 8 mps 744 mmHg 56%
    17:00 +6°C° 0.1 mm 8 mps 744 mmHg 51%
    18:00 +5°C° 0 mm 6 mps 745 mmHg 54%
    19:00 +5°C° 0 mm 5 mps 746 mmHg 58%
    20:00 +4°C° 0 mm 4 mps 746 mmHg 61%
    21:00 +3°C° 0 mm 4 mps 747 mmHg 64%
    22:00 +3°C° 0 mm 4 mps 748 mmHg 66%
    23:00 +1°C° 0 mm 4 mps 748 mmHg 69%

    4 Abril, Sábado

    Tiempo Temperatura Precipitaciones Viento Presión Humedad
    00:00 +2°C° 0 mm 3 mps 749 mmHg 72%
    01:00 +1°C° 0 mm 3 mps 749 mmHg 75%
    02:00 +1°C° 0 mm 3 mps 750 mmHg 78%
    03:00 0°C° 0 mm 3 mps 750 mmHg 79%
    04:00 0°C° 0 mm 3 mps 750 mmHg 80%
    05:00 0°C° 0 mm 3 mps 751 mmHg 81%
    06:00 +1°C° 0 mm 3 mps 751 mmHg 75%
    07:00 +2°C° 0 mm 3 mps 752 mmHg 69%
    08:00 +3°C° 0 mm 4 mps 752 mmHg 63%
    09:00 +4°C° 0.1 mm 4 mps 753 mmHg 61%
    10:00 +5°C° 0.1 mm 4 mps 753 mmHg 60%
    11:00 +6°C° 0.1 mm 4 mps 753 mmHg 59%
    12:00 +7°C° 0.2 mm 4 mps 754 mmHg 55%
    13:00 +8°C° 0.2 mm 5 mps 754 mmHg 51%
    14:00 +9°C° 0.2 mm 5 mps 754 mmHg 47%
    15:00 +8°C° 0.1 mm 5 mps 754 mmHg 47%
    16:00 +8°C° 0.1 mm 6 mps 755 mmHg 46%
    17:00 +8°C° 0.1 mm 6 mps 755 mmHg 45%
    18:00 +7°C° 0 mm 5 mps 755 mmHg 48%
    19:00 +5°C° 0 mm 4 mps 756 mmHg 51%
    20:00 +4°C° 0 mm 3 mps 757 mmHg 54%
    21:00 +3°C° 0 mm 3 mps 758 mmHg 58%
    22:00 +4°C° 0 mm 2 mps 758 mmHg 62%
    23:00 +3°C° 0 mm 2 mps 759 mmHg 66%

    5 Abril, Domingo

    Tiempo Temperatura Precipitaciones Viento Presión Humedad
    00:00 +2°C° 0 mm 2 mps 760 mmHg 66%
    01:00 +2°C° 0 mm 2 mps 760 mmHg 66%
    02:00 +2°C° 0 mm 1 mps 761 mmHg 66%
    03:00 +2°C° 0 mm 1 mps 761 mmHg 67%
    04:00 +1°C° 0 mm 1 mps 762 mmHg 68%
    05:00 +1°C° 0 mm 1 mps 762 mmHg 69%
    06:00 +2°C° 0 mm 1 mps 762 mmHg 65%
    07:00 +2°C° 0 mm 2 mps 763 mmHg 61%
    08:00 +3°C° 0 mm 2 mps 763 mmHg 56%
    09:00 +4°C° 0 mm 2 mps 763 mmHg 51%
    10:00 +6°C° 0 mm 2 mps 763 mmHg 46%
    11:00 +7°C° 0 mm 2 mps 764 mmHg 42%
    12:00 +8°C° 0 mm 2 mps 764 mmHg 39%
    13:00 +9°C° 0 mm 2 mps 763 mmHg 36%
    14:00 +10°C° 0 mm 3 mps 763 mmHg 33%
    15:00 +10°C° 0 mm 3 mps 763 mmHg 34%
    16:00 +10°C° 0 mm 3 mps 763 mmHg 35%
    17:00 +10°C° 0 mm 3 mps 763 mmHg 36%
    18:00 +8°C° 0 mm 3 mps 762 mmHg 40%
    19:00 +7°C° 0 mm 3 mps 762 mmHg 44%
    20:00 +5°C° 0 mm 3 mps 762 mmHg 48%
    21:00 +4°C° 0 mm 3 mps 762 mmHg 49%
    22:00 +4°C° 0 mm 3 mps 762 mmHg 50%
    23:00 +3°C° 0 mm 4 mps 763 mmHg 51%
    Mostrar más